Wind_Speed
28 28 28 28 27 27 26 25 24 24 24 22 21 20 19 17 16 14 13 12 11 11 11 11 10 10 10 9 10 11 12 13 13 11 11 12 11 11 11 10 10 9
28 28 29 28 27 26 25 25 24 24 23 22 20 19 18 16 15 13 13 12 11 11 11 10 10 11 10 10 12 12 13 15 15 14 14 13 13 12 12 11 11 10
29 28 28 27 27 26 25 25 24 23 23 21 20 18 17 16 14 13 12 12 11 11 10 10 11 12 12 13 14 13 14 15 15 14 14 13 12 13 13 12 11 10
29 28 27 26 26 26 26 25 24 23 22 21 19 18 17 16 15 14 13 12 11 10 11 11 12 12 12 12 12 12 13 13 13 13 12 12 12 13 13 12 12 11
28 27 27 26 26 26 26 25 24 23 21 20 19 18 16 16 15 14 12 11 11 11 11 11 11 11 10 10 10 11 11 11 11 11 12 12 11 12 12 12 12 12
28 27 27 27 27 26 25 24 24 22 21 20 19 18 16 15 14 13 12 12 11 11 11 10 10 9 10 9 10 10 10 10 11 11 11 11 11 11 11 12 12 12
28 28 28 27 27 26 25 24 23 22 21 20 19 18 16 15 14 13 13 12 12 11 10 10 9 9 9 9 9 9 9 10 10 11 11 11 11 11 11 11 12 12
29 29 28 27 27 26 25 24 23 22 21 20 19 18 16 15 14 14 14 13 12 11 9 9 8 7 7 7 7 7 8 9 10 11 11 11 11 12 11 12 12 12
29 29 28 27 27 26 25 24 24 22 21 20 19 18 17 16 15 15 15 13 12 10 8 7 6 5 4 4 5 6 7 8 9 10 11 12 12 12 12 12 12 12
29 29 28 28 27 26 26 25 24 22 21 20 19 18 18 17 16 15 15 13 11 9 7 6 4 3 2 3 4 5 7 8 9 10 11 12 13 13 13 13 13 13
30 29 29 29 28 27 26 25 24 24 22 21 20 19 18 18 17 16 15 13 10 8 6 5 3 1 1 2 4 5 7 8 9 11 12 12 13 13 13 13 13 13
30 30 30 29 28 27 27 26 26 25 23 22 21 20 20 19 18 16 15 12 10 8 6 4 3 1 1 3 4 5 7 8 9 11 12 13 14 14 14 14 14 13
31 31 31 30 28 28 27 27 27 25 24 23 22 21 21 20 18 17 15 12 10 8 6 5 3 2 3 4 5 6 7 9 10 11 13 14 15 15 15 15 15 14
32 31 31 30 29 28 29 28 27 26 25 24 23 22 21 20 18 17 15 12 10 9 7 6 5 4 4 5 6 7 8 10 11 12 13 15 16 16 16 16 16 15
32 31 31 30 29 29 29 29 28 27 26 25 24 23 22 20 19 17 15 13 11 10 8 7 6 6 6 7 8 8 10 11 12 13 14 16 17 17 18 17 16 16
32 31 31 31 30 29 29 29 29 28 28 27 26 24 23 21 20 18 16 14 13 11 10 8 8 8 8 8 9 10 11 13 14 14 15 16 18 19 19 18 17 16
32 32 32 32 31 30 29 30 30 30 29 28 27 25 23 22 21 19 17 15 14 12 11 10 9 9 9 10 10 11 13 14 15 16 16 17 18 19 20 20 18 17
32 32 33 33 33 31 31 31 31 31 30 29 28 26 25 23 22 20 19 17 15 13 13 12 10 11 11 11 12 13 14 16 16 17 17 18 18 19 20 19 19 18
33 33 34 34 34 33 32 31 31 32 32 31 29 28 26 25 23 22 20 19 17 16 15 13 12 12 13 13 13 13 14 16 17 18 18 19 19 19 20 19 18 19
34 35 35 34 33 33 32 32 33 33 32 31 30 29 27 26 25 24 22 21 20 18 17 15 14 14 14 14 14 15 15 16 17 18 19 19 20 20 19 19 18 18
35 35 35 34 33 33 33 33 33 33 33 32 31 30 29 28 27 25 24 23 22 20 19 17 16 15 15 16 16 15 16 16 18 19 19 20 20 20 19 18 17 17
35 35 34 34 34 34 34 34 34 34 34 33 31 30 30 29 27 26 25 25 24 22 21 20 18 17 17 17 17 16 17 18 19 19 20 20 20 20 20 18 18 18
35 35 35 35 35 35 35 36 36 35 34 33 32 32 31 30 29 28 28 27 26 24 23 22 20 18 18 18 17 17 17 19 19 20 20 21 21 20 20 18 18 17
35 36 35 35 35 36 37 37 36 35 34 34 34 33 33 32 31 30 29 28 27 25 24 23 22 20 19 19 18 17 18 19 20 20 20 21 21 20 19 17 17 16
35 36 36 36 37 37 37 37 36 35 35 34 34 33 33 32 31 30 30 29 28 26 25 25 24 22 20 19 18 17 18 19 20 20 20 21 21 20 18 17 16 15
34 35 36 37 37 37 37 36 35 34 34 34 33 33 32 32 31 30 30 29 28 28 27 26 26 23 20 19 18 17 17 19 20 20 21 21 20 18 17 17 16 15
Wind_Direction
153 153 150 148 146 147 148 148 147 145 142 140 137 134 131 126 123 119 114 109 104 98 93 87 81 78 77 74 69 65 57 50 48 44 36 35 34 30 29 24 23 25
157 155 154 153 152 154 155 154 153 149 146 144 141 138 135 131 128 124 119 114 108 101 95 91 82 76 71 62 54 49 43 37 33 29 24 22 21 20 19 15 14 13
161 160 161 160 159 159 159 158 155 152 149 147 145 143 139 136 134 129 125 118 111 106 96 86 74 64 56 49 42 34 30 27 24 21 18 14 11 8 8 5 4 3
165 166 165 164 162 161 161 160 157 155 152 150 148 147 144 141 138 133 129 123 113 102 87 73 63 56 50 44 38 29 23 20 17 13 11 9 4 358 356 353 353 355
168 168 167 166 165 164 163 161 159 157 155 153 151 150 148 144 140 136 129 120 106 91 81 73 65 58 51 44 39 31 24 18 13 8 3 1 357 351 347 344 344 345
169 169 168 168 167 166 165 162 161 160 158 156 154 152 149 145 140 134 123 111 102 94 87 82 76 68 60 52 44 37 30 21 12 5 359 353 348 344 341 337 336 336
170 170 169 169 168 168 167 164 163 162 161 159 156 153 152 147 139 129 120 114 110 105 100 94 87 79 69 60 51 41 32 24 15 7 359 350 343 339 335 331 328 327
171 171 171 171 170 170 170 168 166 166 164 162 158 156 153 146 139 133 130 127 123 119 116 108 96 88 78 64 51 39 29 21 12 4 357 348 340 334 330 326 323 321
173 173 173 174 174 174 173 171 170 169 167 165 163 160 154 148 145 143 141 141 139 136 130 121 111 100 84 60 44 32 22 14 4 358 352 344 338 332 327 324 320 319
175 176 176 177 178 178 176 175 174 171 169 169 167 163 158 155 154 153 154 154 155 151 145 140 133 113 76 43 30 18 10 2 355 350 345 339 334 329 324 321 319 318
179 179 180 182 182 181 180 179 177 174 173 173 170 166 163 162 163 165 168 169 167 165 162 163 160 140 52 15 4 357 353 348 344 340 337 334 329 325 321 319 316 314
182 183 185 186 186 185 183 182 180 178 178 177 175 172 171 171 173 177 180 181 180 180 181 185 191 210 310 337 337 337 336 333 331 330 327 327 324 321 318 315 312 310
187 188 190 190 190 188 186 185 184 184 184 182 181 180 180 180 183 187 189 190 193 194 198 206 217 245 287 307 314 318 319 318 318 319 319 320 319 317 314 310 306 304
191 193 193 193 192 190 190 189 189 189 188 186 186 187 187 189 193 196 197 198 202 206 212 221 233 255 278 292 300 303 304 305 308 310 313 314 313 311 308 304 302 300
195 196 196 195 194 193 193 193 193 193 191 191 191 192 194 196 200 203 205 207 210 214 220 229 242 258 274 283 289 292 293 296 300 303 306 307 308 308 305 303 301 299
198 198 197 196 196 197 198 197 197 196 194 195 196 197 199 202 205 208 211 214 217 220 226 235 247 259 270 276 281 285 286 289 293 297 300 302 304 304 303 302 301 299
200 199 198 198 199 200 202 201 200 200 198 199 201 202 205 207 210 213 216 219 222 226 233 240 248 260 267 271 276 280 284 287 290 293 296 298 300 301 300 300 300 300
201 200 200 201 201 203 204 204 204 203 203 203 205 207 210 212 215 219 221 224 228 232 238 245 252 260 265 268 272 277 281 285 288 291 295 296 297 297 297 297 298 297
203 203 202 203 203 205 206 206 206 207 207 208 210 213 215 217 220 224 226 229 233 236 242 248 254 260 263 266 270 273 277 280 284 289 291 293 294 293 292 293 294 294
205 205 204 204 205 206 208 209 210 211 212 213 215 217 220 222 224 228 230 234 238 241 245 249 253 258 262 263 266 271 274 275 279 284 287 289 290 289 288 289 290 291
206 206 205 205 207 208 210 212 214 215 216 217 219 221 225 228 230 232 235 238 241 243 246 249 253 256 259 261 264 269 271 271 275 280 282 284 285 285 285 286 288 288
206 206 206 208 209 210 212 214 217 218 219 220 222 225 228 230 233 236 239 241 242 243 246 250 253 255 256 259 263 266 268 269 273 276 278 280 281 281 282 283 284 285
208 208 209 210 211 212 215 217 219 220 221 223 225 227 229 232 235 238 241 242 242 244 247 251 253 253 255 258 260 263 265 268 271 274 275 278 280 280 280 281 281 283
211 212 212 212 212 215 218 220 221 223 225 227 228 230 233 236 238 240 242 244 244 245 248 251 253 252 252 255 259 261 264 267 271 272 274 277 280 280 282 283 282 283
215 215 215 215 216 219 221 222 224 226 228 229 231 233 236 238 239 241 243 245 246 247 248 250 252 252 251 254 257 259 262 266 269 270 273 276 278 279 281 280 278 281
218 218 219 219 221 223 224 225 227 228 229 230 232 234 235 237 239 241 243 246 247 248 248 249 252 252 250 252 256 257 260 264 266 267 270 274 275 275 275 274 273 279
Height
859 860 861 863 865 867 869 870 871 873 874 876 877 879 881 882 884 885 886 887 888 889 890 891 892 893 893 894 894 893 893 893 893 893 893 892 892 892 892 892 891 891
858 859 861 862 864 867 868 869 870 872 873 875 877 878 880 881 883 884 885 887 888 889 890 891 892 893 893 893 892 892 892 892 892 892 892 891 891 891 891 891 890 890
857 858 860 861 863 866 867 869 870 871 872 874 876 877 879 880 882 883 885 886 888 889 890 891 891 891 891 891 891 891 891 891 891 891 891 891 891 891 890 890 890 890
856 857 859 861 863 865 866 868 869 871 872 873 875 877 878 880 881 883 884 886 887 888 889 889 890 890 891 891 891 891 891 891 892 892 891 891 891 890 890 890 889 889
855 857 859 861 863 865 866 867 869 870 872 873 875 877 878 879 881 882 884 885 886 887 887 888 889 890 890 891 891 891 891 891 891 891 891 891 890 890 889 889 888 888
855 857 859 861 863 864 866 867 868 870 871 873 875 877 878 879 881 882 883 884 885 886 887 888 889 889 890 890 891 891 891 891 891 890 890 890 889 889 888 888 887 887
854 856 858 861 862 864 865 866 868 869 871 873 874 876 877 879 880 881 882 884 885 886 887 888 888 888 889 889 890 890 890 890 890 889 889 889 888 888 887 887 886 886
853 855 858 860 861 863 864 865 867 869 870 872 873 875 876 877 879 880 882 883 884 886 886 887 887 888 888 889 889 889 889 889 888 888 888 887 887 887 886 886 885 885
852 854 857 859 860 862 863 865 866 868 869 871 872 873 875 876 878 879 881 882 883 885 885 886 886 887 887 887 887 887 887 887 887 887 886 886 886 885 885 884 884 883
851 853 855 857 859 860 862 863 865 867 868 870 871 872 873 875 877 878 880 881 882 883 883 884 885 886 886 886 886 886 886 886 886 885 885 884 884 884 883 883 882 881
849 852 854 855 857 859 860 862 864 865 867 868 869 871 872 874 876 878 879 880 880 881 881 882 883 884 884 884 884 884 884 884 884 884 883 883 882 882 881 881 880 880
848 850 852 854 855 857 859 861 862 864 865 867 868 870 871 873 875 876 878 878 879 879 879 880 881 882 882 882 883 883 882 882 882 882 881 881 880 880 879 879 878 878
846 848 850 852 854 856 858 859 860 862 863 865 867 868 870 871 873 875 876 876 877 877 878 879 879 880 880 881 881 881 881 881 880 880 879 879 878 878 877 877 876 876
844 847 849 851 853 854 856 857 859 860 862 863 865 866 868 870 871 873 874 874 875 875 876 877 878 878 878 879 879 879 879 879 878 878 877 876 876 876 875 875 874 874
843 846 848 850 852 853 854 855 857 858 860 862 863 864 866 868 869 871 871 872 872 873 874 875 876 876 876 877 877 877 877 877 876 875 875 874 874 873 873 873 872 872
841 844 846 848 849 851 852 853 854 856 858 860 861 862 864 865 867 868 869 869 870 871 872 873 873 874 874 875 875 875 875 875 874 873 873 872 871 871 871 870 870 870
840 842 844 845 846 848 849 851 852 854 856 858 859 860 861 863 864 866 866 867 868 869 870 871 871 872 872 873 873 873 873 872 871 871 870 870 869 869 868 868 868 868
837 839 841 842 844 845 847 848 850 852 854 855 856 857 859 860 862 863 864 865 865 866 867 868 869 870 870 871 871 871 871 869 868 868 867 867 867 867 866 866 865 865
835 836 838 839 840 842 844 846 848 849 851 852 854 855 856 857 859 860 861 862 863 864 865 865 867 868 868 869 869 869 868 867 866 865 865 865 865 864 864 864 863 863
832 833 834 836 838 840 842 843 845 847 848 850 851 852 853 855 856 857 858 859 860 861 862 863 864 865 866 866 866 866 866 865 863 863 862 862 862 862 861 861 861 861
828 829 832 833 835 837 839 841 842 844 845 847 848 850 851 852 853 855 856 856 857 858 859 860 862 863 863 863 864 863 863 862 861 860 860 859 859 859 858 858 858 858
824 826 829 830 833 835 836 838 839 840 842 844 846 847 848 849 851 852 853 854 854 855 856 857 859 860 860 861 861 861 860 859 858 857 857 856 856 856 856 855 855 855
822 823 826 827 829 831 832 834 835 837 839 841 843 844 845 846 848 849 849 850 851 852 853 854 856 857 857 858 858 858 857 856 855 855 854 853 853 853 853 853 853 852
819 820 822 824 826 827 829 830 832 834 836 837 839 840 841 843 844 845 846 847 847 849 850 850 852 854 854 854 855 855 854 853 852 852 851 851 850 850 850 850 850 850
816 818 819 821 823 824 825 827 829 831 833 834 836 837 838 840 841 842 842 843 844 846 847 847 849 850 851 851 851 852 851 850 849 849 848 848 847 847 847 847 847 847
813 815 816 818 819 820 822 824 826 828 829 831 832 834 835 837 837 838 839 840 841 842 843 844 845 846 848 848 848 848 848 847 846 846 845 845 845 845 845 844 845 845